Regional Weather Roundup
Issued by NWS State College, PA

Home | Current Version | Previous Version | Text Only | Print | Product List | Glossary On
Versions: 1 2 3 4 5 6 7 8 9 10 11 12 13 14 15 16 17 18 19 20 21 22 23 24 25 26 27 28 29 30 31 32 33 34 35 36 37 38 39 40 41 42 43 44 45 46 47 48 49 50
000
ASUS41 KCTP 190610
RWRCTP

REGIONAL WEATHER ROUNDUP
NATIONAL WEATHER SERVICE STATE COLLEGE PA
100 AM EST SUN FEB 19 2017

Note: "fair" indicates few or no clouds below 12,000 feet with no
significant weather and/or obstructions to visibility.

* = STATION THAT DOES NOT REPORT PRECIPITATION /E.G. RAIN...SNOW...ETC/
    THUNDER OR FOG.

PAZ002>004-007>009-013>016-020>023-029>032-190700-
WESTERN PENNSYLVANIA

CITY           SKY/WX    TMP DP  RH WIND       PRES   REMARKS
ERIE           CLEAR     49  38  65 SW7       29.77R
MEADVILLE      CLEAR     49  37  63 SW8       29.78S
FRANKLIN*      CLEAR     48  36  61 SW9       29.82R
NEW CASTLE     FAIR      47  37  68 SW3       29.83R
BEAVER COUNTY  NOT AVBL
BUTLER*        MOCLDY    48  37  66 SW10      29.84R
PITTSBURGH INT MOCLDY    50  43  77 SW9       29.84R
PITTSBURGH     PTCLDY    50  40  68 SW12      29.84S
INDIANA*       PTCLDY    50  39  66 SW14      29.85S
LATROBE        CLOUDY    50  41  71 SW13      29.86S
WASHINGTON CO* CLOUDY    50  41  71 SW9       29.89R
$$

PAZ004>006-010>012-017>019-024>028-033>037-041-042-045-046-049>053-190700-
CENTRAL PENNSYLVANIA

CITY           SKY/WX    TMP DP  RH WIND       PRES   REMARKS
BRADFORD       CLEAR     48  37  65 W6        29.76R
DUBOIS         CLOUDY    48  34  58 SW10      29.79R
CLEARFIELD       N/A    N/A N/A N/A MISG      29.79R
JOHNSTOWN      MOCLDY    48  40  73 SW12      29.82R
ALTOONA        CLOUDY    55  36  48 W10       29.81R
STATE COLLEGE  CLOUDY    53  35  50 W10G16    29.78S
WILLIAMSPORT   CLOUDY    36  32  85 CALM      29.74R
SELINSGROVE    CLOUDY    52  35  52 CALM      29.76R
FT INDIANTOWN  CLOUDY    47  33  59 W3        29.75R
CAPITAL CITY   CLOUDY    57  31  37 CALM      29.76R
HARRISBURG     CLOUDY    49  35  58 CALM      29.76R
YORK           MOCLDY    60  33  36 W6        29.76S
$$

PAZ038>040-043-044-047-048-054-055-060>062-067>071-190700-
EASTERN PENNSYLVANIA

CITY           SKY/WX    TMP DP  RH WIND       PRES   REMARKS
SCRANTON       CLOUDY    53  33  46 SW9       29.71R
MOUNT POCONO   CLOUDY    50  32  50 W14       29.69R
ALLENTOWN      CLOUDY    48  32  53 SW7       29.72R
QUAKERTOWN*    PTCLDY    39  32  75 CALM      29.74R
READING        CLOUDY    50  34  54 W3        29.74R
LANCASTER      CLOUDY    52  33  48 W3        29.76R
COATESVILLE    CLOUDY    54  32  43 W7        29.77S
POTTSTOWN      CLOUDY    48  32  53 CALM      29.75R
BLUE BELL      MOCLDY    52  34  50 W3        29.73S
DOYLESTOWN     CLOUDY    53  33  46 SW8       29.72R
WILLOW GROVE   NOT AVBL
NORTH PHILA    CLOUDY    54  36  50 SW7       29.75S
PHILADELPHIA   CLOUDY    50  37  61 SW5       29.75S
$$




USA.gov is the U.S. government's official web portal to all federal, state and local government web resources and services.